Location: Unnamed
(51.5169°N, 0.1311°W)
Time: 05:48:34
(UTC+01:00)

Vanguard 1 - Pass Details

Date: 10 August 2024
Orbit: 649 x 3825 km, 34.2° (Epoch: 16 September)

Event Time Altitude Azimuth Distance (km) Brightness Sun altitude
Rises 01:26:57 0° 244° (WSW) 5,007 13.4 -22.9°
Reaches altitude 10° 01:29:57 10° 236° (WSW) 4,370 13.0 -22.8°
Maximum altitude 01:41:41 41° 172° (S) 3,632 12.4 -22.6°
Drops below altitude 10° 02:00:13 10° 112° (ESE) 6,755 14.2 -22.0°
Sets 02:06:20 0° 107° (ESE) 7,935 14.7 -21.7°
